Terminal Aerodrome Forecast
Issued by NWS Dodge City, KS

Home | Current Version | Previous Version | Graphics & Text | Print | Product List | Glossary Off
Versions: 1 2 3 4 5 6 7 8 9 10 11 12 13 14 15 16 17 18 19 20 21 22 23 24 25 26 27 28 29 30 31 32 33 34 35 36 37 38 39 40 41 42 43

803
FTUS43 KDDC 230145 AAA
TAFDDC
TAF AMD
KDDC 230145Z 2302/2324 15007KT 1/2SM FZFG VV002
     FM230700 VRB05KT 1/4SM FZFG BKN001
     FM231700 02008KT 4SM BR OVC003
     FM231900 05008KT P6SM SCT020=

USA.gov is the U.S. government's official web portal to all federal, state and local government web resources and services.